Flag for United Kingdom Weather past 2 weeks in Lichfield, England, United Kingdom

Now
61 °F

Scattered clouds.


Feels Like: 61 °F
Forecast: 51 / 66 °F
Wind: 12 mph from West

Location: Birmingham / Airport

Current Time: Aug 30, 2014 at 11:53:38 AM

Latest Report: Aug 30, 2014 at 11:20 AM


Visibility: N/A

Pressure: 29.95 "Hg

Humidity: 77%

Dew point: 54 °F

Location of LichfieldLocation

Historic Weather in Lichfield — Graph

°F

Lichfield temperature yesterday

Maximum temperature yesterday: 64 °F (at 12:50 PM)
Minimum temperature yesterday: 55 °F (at 12:20 AM)
Average temperature yesterday: 60 °F

Past Weeks' High & Low Weather Summary

 TemperatureHumidityPressure
High68 °F (Aug 28, 3:20 PM)100% (Aug 25, 5:20 AM)30.15 "Hg (Aug 25, 5:20 AM)
Low45 °F (Aug 21, 3:20 AM)42% (Aug 18, 6:20 PM)29.53 "Hg (Aug 25, 8:50 PM)
Average58 °F75%29.89 "Hg
* Reported Aug 15 10:20 AM — Aug 30 10:50 AM, Lichfield, Weather by CustomWeather, © 2014

Note: Actual official high and low records may vary slightly from our data, if they occured in-between our weather recording intervals... More about our weather records

Advertising

Lichfield weather history for previous 24 hours

 ConditionsComfort  
Time TempWeatherWind HumidityBarometerVisibility
10:50 AM
Aug 30
61 °FPartly sunny.12 mph77%29.95 "HgN/A
10:20 AM59 °FPartly sunny.13 mph82%29.95 "HgN/A
9:50 AM59 °FScattered clouds.10 mph82%29.95 "HgN/A
9:20 AM59 °FPassing clouds.9 mph77%29.92 "HgN/A
8:50 AM57 °FPassing clouds.9 mph82%29.92 "HgN/A
8:20 AM57 °FPassing clouds.8 mph82%29.92 "HgN/A
7:50 AM55 °FPassing clouds.7 mph82%29.92 "HgN/A
7:20 AM55 °FScattered clouds.7 mph82%29.92 "HgN/A
6:50 AM55 °FPassing clouds.6 mph82%29.89 "HgN/A
6:20 AM55 °FPassing clouds.7 mph82%29.89 "HgN/A
5:50 AM55 °FPassing clouds.7 mph82%29.89 "HgN/A
5:20 AM55 °FPassing clouds.6 mph82%29.89 "HgN/A
4:50 AM55 °FPassing clouds.9 mph82%29.86 "HgN/A
4:20 AM57 °FPassing clouds.12 mph77%29.86 "HgN/A
3:50 AM59 °FPartly cloudy.5 mph94%29.86 "HgN/A
3:20 AM59 °FPartly cloudy.5 mph94%29.86 "HgN/A
2:50 AM59 °FPassing clouds.8 mph94%29.86 "HgN/A
2:20 AM59 °FPartly cloudy.6 mph94%29.86 "HgN/A
1:50 AM59 °FPartly cloudy.7 mph94%29.86 "HgN/A
1:20 AM59 °FPassing clouds.6 mph94%29.86 "HgN/A
12:50 AM59 °FPassing clouds.6 mph94%29.86 "HgN/A
12:20 AM59 °FClear.7 mph94%29.86 "Hg10 mi
11:50 PM
Aug 29
61 °FPassing clouds.9 mph88%29.86 "HgN/A
11:20 PM61 °FPassing clouds.9 mph88%29.86 "HgN/A
10:50 PM61 °FPassing clouds.8 mph88%29.83 "HgN/A
10:20 PM61 °FPartly cloudy.9 mph88%29.83 "HgN/A
8:20 PM63 °FPartly sunny.8 mph83%29.83 "HgN/A
7:50 PM63 °FPartly sunny.8 mph83%29.80 "HgN/A
7:20 PM63 °FPartly sunny.7 mph83%29.80 "HgN/A
6:50 PM63 °FPartly sunny.9 mph77%29.80 "HgN/A
6:20 PM63 °FPartly sunny.8 mph77%29.80 "HgN/A
5:50 PM63 °FBroken clouds.9 mph83%29.83 "HgN/A
5:20 PM63 °FScattered showers. Broken clouds.10 mph83%29.83 "HgN/A
4:50 PM63 °FScattered clouds.9 mph88%29.83 "HgN/A
4:20 PM61 °FSprinkles. Broken clouds.10 mph94%29.83 "Hg1 mi
3:50 PM63 °FSprinkles. Broken clouds.9 mph88%29.83 "Hg6 mi
3:20 PM61 °FSprinkles. Broken clouds.9 mph94%29.83 "Hg2 mi
2:50 PM63 °FPartly sunny.10 mph83%29.83 "HgN/A
2:20 PM63 °FSprinkles. Broken clouds.14 mph77%29.83 "Hg3 mi
1:50 PM64 °FScattered clouds.13 mph68%29.83 "HgN/A
1:20 PM64 °FScattered clouds.13 mph68%29.83 "HgN/A
12:50 PM64 °FScattered showers. Scattered clouds.12 mph73%29.83 "HgN/A
12:20 PM63 °FScattered showers. Scattered clouds.13 mph77%29.83 "HgN/A
11:50 AM63 °FSprinkles. Broken clouds.12 mph73%29.83 "HgN/A
11:20 AM63 °FScattered showers. Broken clouds.13 mph73%29.83 "HgN/A
Weather by CustomWeather, © 2014

See weather overviewHow to use our weather pages